Wind from 172 at 2 knots gusting 5

Air temperature 13.3° C
Dewpoint 10.9° C

Last reported at 2014-Apr-20 02:27 UTC.
Time now 2014-Apr-20 03:24 UTC

Location: N 39°37' E 019°54'.
View on Google Maps.

See reports from other nearby stations

Tides Stations Pressure Air Temp Water Temp Dewpoint Dewpoint depression Visibility Wind Speed Wind Dir Waves Ship positions

  
sailing weather and tide predictions

CW7977 Corfu GR weather

date/time (UTC)wind fromknots sea level pressurealtimeterstation pressurevisibilityair tempwater tempwave heightnotes
2014-Apr-20 02:27 172 2 gusting 5 13.3
2014-Apr-20 02:17 166 5 gusting 8 13.3
2014-Apr-20 02:07 174 4 gusting 6 13.3
2014-Apr-20 01:57 199 2 gusting 5 13.3
2014-Apr-20 01:47 164 4 gusting 6 13.3
2014-Apr-20 01:37 155 3 gusting 6 13.9
2014-Apr-20 01:27 160 3 gusting 6 13.9
2014-Apr-20 01:17 161 2 gusting 7 13.9
2014-Apr-20 01:07 153 6 gusting 10 13.9
2014-Apr-20 00:57 152 4 gusting 8 13.9
2014-Apr-20 00:47 142 6 gusting 11 13.9
2014-Apr-20 00:37 137 5 gusting 10 13.9
2014-Apr-20 00:27 148 5 gusting 13 13.3
2014-Apr-20 00:17 131 5 gusting 8 13.3
2014-Apr-20 00:07 147 4 gusting 7 13.3
2014-Apr-19 23:57 154 4 gusting 7 13.9
2014-Apr-19 23:47 144 4 gusting 6 13.3
2014-Apr-19 23:37 149 5 gusting 8 13.3
2014-Apr-19 23:17 154 6 gusting 8 13.9
2014-Apr-19 23:07 196 4 gusting 8 13.9
2014-Apr-19 22:57 138 5 gusting 7 13.9
2014-Apr-19 22:47 146 2 gusting 12 13.3
2014-Apr-19 22:37 150 5 gusting 8 13.3
2014-Apr-19 22:27 146 5 gusting 11 13.3
2014-Apr-19 22:17 152 2 gusting 7 13.3
2014-Apr-19 22:07 155 5 gusting 7 13.3
2014-Apr-19 21:57 158 5 gusting 10 13.3
2014-Apr-19 21:47 156 4 gusting 8 13.3
2014-Apr-19 21:37 157 3 gusting 6 13.3
2014-Apr-19 21:27 161 3 gusting 7 13.3
2014-Apr-19 21:17 172 3 gusting 8 13.3
2014-Apr-19 21:07 153 4 gusting 8 13.3
2014-Apr-19 20:57 157 3 gusting 7 13.3
2014-Apr-19 20:47 143 5 gusting 10 13.3
2014-Apr-19 20:37 165 4 gusting 6 13.3
2014-Apr-19 20:27 167 2 gusting 6 13.3
2014-Apr-19 20:17 164 1 gusting 2 13.3
2014-Apr-19 20:07 202 13.3
2014-Apr-19 19:57 202 13.3
2014-Apr-19 19:47 202 1 gusting 2 13.3
2014-Apr-19 19:37 180 1 gusting 4 13.3
2014-Apr-19 19:27 198 1 gusting 4 13.3
2014-Apr-19 19:17 180 2 gusting 6 13.3
2014-Apr-19 19:07 144 2 gusting 5 13.3
2014-Apr-19 18:57 167 2 gusting 4 13.3
2014-Apr-19 18:47 168 1 gusting 4 13.3
2014-Apr-19 18:37 151 2 gusting 4 13.9
2014-Apr-19 18:27 180 2 gusting 6 13.9
2014-Apr-19 18:17 160 2 gusting 5 13.9
2014-Apr-19 18:07 150 2 gusting 4 13.9
2014-Apr-19 17:57 159 2 gusting 5 13.9
2014-Apr-19 17:47 168 2 gusting 5 14.4
2014-Apr-19 17:37 165 3 gusting 6 14.4
2014-Apr-19 17:27 168 4 gusting 6 14.4
2014-Apr-19 17:17 164 3 gusting 7 15.0
2014-Apr-19 17:07 143 2 gusting 6 15.6
2014-Apr-19 16:57 157 4 gusting 7 15.6
2014-Apr-19 16:47 156 5 gusting 7 16.1
2014-Apr-19 16:37 148 3 gusting 6 16.7
2014-Apr-19 16:27 183 4 gusting 10 16.7
2014-Apr-19 16:17 216 5 gusting 7 16.7
2014-Apr-19 16:07 226 6 gusting 11 16.7
2014-Apr-19 15:57 239 6 gusting 11 16.7
2014-Apr-19 15:47 242 6 gusting 10 16.7
2014-Apr-19 15:27 240 5 gusting 8 17.2
2014-Apr-19 15:17 218 5 gusting 7 17.2
2014-Apr-19 15:07 135 6 gusting 8 16.7
2014-Apr-19 14:57 145 6 gusting 8 16.7
2014-Apr-19 14:47 138 6 gusting 10 16.7
2014-Apr-19 14:37 115 5 gusting 10 16.7
2014-Apr-19 14:27 128 6 gusting 12 16.7
2014-Apr-19 14:17 129 7 gusting 11 17.2
2014-Apr-19 14:07 135 6 gusting 12 17.2
2014-Apr-19 13:57 129 6 gusting 12 16.7
2014-Apr-19 13:47 143 4 gusting 8 16.7
2014-Apr-19 13:37 144 4 gusting 12 16.7
2014-Apr-19 13:27 083 5 gusting 10 16.7
2014-Apr-19 13:17 133 7 gusting 12 16.7
2014-Apr-19 13:07 124 6 gusting 12 16.7
2014-Apr-19 12:57 135 6 gusting 13 16.1
2014-Apr-19 12:47 143 8 gusting 13 16.1
2014-Apr-19 12:37 139 5 gusting 12 16.1
2014-Apr-19 12:27 145 7 gusting 12 15.6
2014-Apr-19 12:17 141 6 gusting 13 15.0
2014-Apr-19 12:07 136 5 gusting 10 15.6
2014-Apr-19 11:57 135 4 gusting 10 15.6
2014-Apr-19 11:47 135 5 gusting 11 15.6
2014-Apr-19 11:27 122 8 gusting 13 15.6
2014-Apr-19 11:17 127 6 gusting 12 15.6
2014-Apr-19 11:07 133 6 gusting 11 15.6
2014-Apr-19 10:57 127 5 gusting 10 16.1
2014-Apr-19 10:47 129 5 gusting 10 15.6
2014-Apr-19 10:37 134 7 gusting 11 15.6
2014-Apr-19 10:27 123 7 gusting 11 15.6
2014-Apr-19 10:17 133 6 gusting 11 15.6
2014-Apr-19 10:07 137 6 gusting 12 15.6
2014-Apr-19 09:57 125 6 gusting 12 15.0
2014-Apr-19 09:47 135 5 gusting 10 15.0
2014-Apr-19 09:37 142 5 gusting 10 15.0
2014-Apr-19 09:27 121 5 gusting 8 15.0
2014-Apr-19 09:17 138 5 gusting 11 14.4
2014-Apr-19 09:07 124 6 gusting 11 14.4
2014-Apr-19 08:57 125 5 gusting 10 14.4
2014-Apr-19 08:47 128 6 gusting 11 14.4
2014-Apr-19 08:27 140 7 gusting 12 13.9
2014-Apr-19 08:17 122 6 gusting 11 13.3
2014-Apr-19 08:07 134 3 gusting 10 12.8
2014-Apr-19 07:57 122 4 gusting 10 12.2
2014-Apr-19 07:47 134 5 gusting 12 12.2
2014-Apr-19 07:27 131 4 gusting 10 12.2
2014-Apr-19 07:17 135 4 gusting 8 12.2
2014-Apr-19 06:57 129 6 gusting 12 11.7
2014-Apr-19 06:47 140 6 gusting 10 11.7
2014-Apr-19 06:37 135 6 gusting 11 11.7
2014-Apr-19 06:27 130 4 gusting 10 11.7
2014-Apr-19 06:17 133 5 gusting 8 11.7
2014-Apr-19 06:07 118 4 gusting 8 11.7
2014-Apr-19 05:57 147 4 gusting 8 11.1
2014-Apr-19 05:47 135 4 gusting 8 11.1
2014-Apr-19 05:37 121 6 gusting 10 11.1
2014-Apr-19 05:17 124 5 gusting 10 11.1
2014-Apr-19 05:07 121 3 gusting 8 11.1
2014-Apr-19 04:57 129 6 gusting 12 11.1
2014-Apr-19 04:47 135 5 gusting 10 10.6
2014-Apr-19 04:37 126 6 gusting 13 10.6
2014-Apr-19 04:27 136 3 gusting 11 10.6
2014-Apr-19 04:17 142 5 gusting 10 10.6
2014-Apr-19 04:07 123 4 gusting 13 10.6
2014-Apr-19 03:57 133 6 gusting 10 10.6
2014-Apr-19 03:47 138 7 gusting 10 10.6
2014-Apr-19 03:37 146 5 gusting 12 10.6
2014-Apr-19 03:27 130 6 gusting 8 10.6
2014-Apr-19 03:17 158 10.6
2014-Apr-19 03:07 158 0 gusting 2 10.6
2014-Apr-19 02:57 165 10.6
2014-Apr-19 02:47 180 1 gusting 4 10.6
2014-Apr-19 02:37 158 10.6
2014-Apr-19 02:27 189 1 gusting 4 10.6
2014-Apr-19 02:17 224 1 gusting 4 10.6
2014-Apr-19 02:07 221 0 gusting 2 10.6
2014-Apr-19 01:57 225 0 gusting 2 10.6
2014-Apr-19 01:47 225 10.6
2014-Apr-19 01:37 225 2 gusting 4 10.6
2014-Apr-19 01:27 202 1 gusting 1 10.6
2014-Apr-19 01:17 214 10.6
2014-Apr-19 01:07 325 2 gusting 6 10.6
2014-Apr-19 00:57 148 2 gusting 5 10.6
2014-Apr-19 00:47 135 5 gusting 8 10.6
2014-Apr-19 00:37 140 4 gusting 6 10.6
2014-Apr-19 00:27 126 2 gusting 6 10.6
2014-Apr-19 00:17 128 3 gusting 6 10.6
2014-Apr-19 00:07 161 2 gusting 6 10.6
2014-Apr-18 23:57 190 2 gusting 6 10.6
2014-Apr-18 23:37 202 0 gusting 5 10.6
2014-Apr-18 23:27 206 0 gusting 4 10.6
2014-Apr-18 23:17 202 10.6
2014-Apr-18 23:07 135 10.0
2014-Apr-18 22:57 135 10.0
2014-Apr-18 22:47 139 3 gusting 6 10.0
2014-Apr-18 22:37 154 3 gusting 10 10.0
2014-Apr-18 22:27 140 3 gusting 8 10.0
2014-Apr-18 22:17 180 2 gusting 8 10.0
2014-Apr-18 22:07 146 3 gusting 6 10.0
2014-Apr-18 21:57 144 1 gusting 7 10.0
2014-Apr-18 21:47 138 1 gusting 6 10.6
2014-Apr-18 21:37 203 2 gusting 6 10.6
2014-Apr-18 21:27 179 10.6
2014-Apr-18 21:17 163 4 gusting 5 10.6
2014-Apr-18 21:07 136 3 gusting 6 10.6
2014-Apr-18 20:57 125 4 gusting 6 10.6
2014-Apr-18 20:47 125 3 gusting 6 10.6
2014-Apr-18 20:37 135 1 gusting 4 10.6
2014-Apr-18 20:27 135 1 gusting 4 10.6
2014-Apr-18 20:17 121 2 gusting 2 10.6
2014-Apr-18 20:07 132 3 gusting 6 10.6
2014-Apr-18 19:57 191 10.6
2014-Apr-18 19:47 202 10.6
2014-Apr-18 19:37 225 10.6
2014-Apr-18 19:27 202 1 gusting 2 10.6
2014-Apr-18 19:17 315 10.6
2014-Apr-18 19:07 292 0 gusting 1 10.6
2014-Apr-18 18:57 315 0 gusting 2 10.6
2014-Apr-18 18:47 292 10.6
2014-Apr-18 18:37 292 1 gusting 1 10.6
2014-Apr-18 18:27 297 1 gusting 4 10.6
2014-Apr-18 18:17 300 0 gusting 2 10.6
2014-Apr-18 18:07 315 10.6
2014-Apr-18 17:57 315 0 gusting 4 10.6
2014-Apr-18 17:27 259 0 gusting 5 10.6
2014-Apr-18 17:17 305 3 gusting 6 10.6
2014-Apr-18 17:07 277 4 gusting 6 10.6
2014-Apr-18 16:57 338 4 gusting 6 10.6
2014-Apr-18 16:47 311 4 gusting 7 10.6
2014-Apr-18 16:37 291 2 gusting 6 10.6
2014-Apr-18 16:27 292 3 gusting 6 11.1
2014-Apr-18 16:17 274 3 gusting 6 11.7
2014-Apr-18 16:07 238 2 gusting 11 12.2
2014-Apr-18 15:57 262 8 gusting 17 12.8
2014-Apr-18 15:47 262 6 gusting 8 13.3
2014-Apr-18 15:37 293 1 gusting 6 13.3
2014-Apr-18 15:27 317 3 gusting 10 13.9
2014-Apr-18 15:17 274 4 gusting 10 14.4
2014-Apr-18 14:57 281 2 gusting 8 14.4
2014-Apr-18 14:47 244 5 gusting 10 14.4
2014-Apr-18 14:37 273 6 gusting 11 14.4
2014-Apr-18 14:27 278 2 gusting 11 14.4
2014-Apr-18 14:17 278 2 gusting 10 15.0
2014-Apr-18 14:07 280 5 gusting 10 15.0
2014-Apr-18 13:57 227 5 gusting 8 15.0
2014-Apr-18 13:47 270 1 gusting 8 15.0
2014-Apr-18 13:37 266 2 gusting 13 14.4
2014-Apr-18 13:27 101 1 gusting 5 14.4
2014-Apr-18 13:07 345 4 gusting 6 14.4
2014-Apr-18 12:57 093 1 gusting 6 15.0
2014-Apr-18 12:47 106 2 gusting 6 15.0
2014-Apr-18 12:37 111 1 gusting 6 15.0
2014-Apr-18 12:27 126 1 gusting 8 15.6
2014-Apr-18 12:17 105 2 gusting 10 16.1
2014-Apr-18 12:07 109 1 gusting 6 16.1
2014-Apr-18 11:57 134 2 gusting 6 15.6
2014-Apr-18 11:47 070 1 gusting 7 15.6
2014-Apr-18 11:37 136 4 gusting 8 15.6
2014-Apr-18 11:27 098 3 gusting 7 15.6
2014-Apr-18 11:17 135 2 gusting 6 15.0
2014-Apr-18 11:07 115 2 gusting 6 15.0
2014-Apr-18 10:57 136 3 gusting 7 15.0
2014-Apr-18 10:47 120 2 gusting 6 13.9
2014-Apr-18 10:37 087 2 gusting 7 13.3
2014-Apr-18 10:17 045 3 gusting 6 11.7
2014-Apr-18 10:07 070 1 gusting 6 11.7
2014-Apr-18 09:57 018 2 gusting 6 12.2
2014-Apr-18 09:47 350 1 gusting 6 12.8
2014-Apr-18 09:37 030 2 gusting 8 13.3
2014-Apr-18 09:27 202 1 gusting 4 13.3
2014-Apr-18 09:17 181 2 gusting 6 13.3
2014-Apr-18 09:07 155 2 gusting 8 13.3
2014-Apr-18 08:57 227 5 gusting 7 13.9
2014-Apr-18 08:47 227 6 gusting 10 14.4
2014-Apr-18 08:37 164 1 gusting 6 13.9
2014-Apr-18 08:27 184 1 gusting 6 13.3
2014-Apr-18 08:07 138 4 gusting 6 13.3
2014-Apr-18 07:57 150 1 gusting 6 13.3
2014-Apr-18 07:47 135 3 gusting 7 13.3
2014-Apr-18 07:37 123 1 gusting 6 13.3
2014-Apr-18 07:27 052 1 gusting 6 13.3
2014-Apr-18 07:17 062 3 gusting 6 13.3
2014-Apr-18 07:07 059 2 gusting 6 12.8
2014-Apr-18 06:57 058 2 gusting 6 12.2
2014-Apr-18 06:47 150 2 gusting 5 11.1
2014-Apr-18 06:37 135 2 gusting 4 10.6
2014-Apr-18 06:27 085 10.6
2014-Apr-18 06:17 072 0 gusting 1 10.0
2014-Apr-18 06:07 225 9.4
2014-Apr-18 05:57 237 8.9
2014-Apr-18 05:47 202 0 gusting 1 8.3
2014-Apr-18 05:37 225 1 gusting 2 8.3
2014-Apr-18 05:27 217 1 gusting 2 8.3
2014-Apr-18 05:17 202 1 gusting 5 7.8
2014-Apr-18 04:57 225 2 gusting 2 7.8
2014-Apr-18 04:47 225 0 gusting 2 7.8
2014-Apr-18 04:37 158 0 gusting 2 7.8
2014-Apr-18 04:27 202 7.2
2014-Apr-18 04:17 202 7.2
2014-Apr-18 04:07 225 7.2
2014-Apr-18 03:57 225 7.8
2014-Apr-18 03:47 239 2 gusting 5 7.8
2014-Apr-18 03:37 225 0 gusting 2 7.8
2014-Apr-18 03:27 248 0 gusting 2 7.8
2014-Apr-18 03:17 244 2 gusting 4 7.8
2014-Apr-18 03:07 261 7.8